Fallon NAS, NV

1:25 PM PDT on May 28, 2017 (GMT -0700)
Fallon Naval Air Station

Weather History for KNFL - May, 2013

Change the Weather History Date:

Wednesday, May 1, 2013

  Actual Average Record
Temperature  
Mean Temperature 50 °F -  
Max Temperature 66 °F 70 °F 86 °F (1981)
Min Temperature 33 °F 36 °F 20 °F (1967)
Degree Days  
Heating Degree Days 16    
Moisture  
Dew Point 2 °F    
Average Humidity 16    
Maximum Humidity 32    
Minimum Humidity 7    
Precipitation  
Precipitation 0.00 in - - ()
Sea Level Pressure  
Sea Level Pressure 30.23 in    
Wind  
Wind Speed 7 mph (NNE)    
Max Wind Speed 17 mph    
Max Gust Speed 16 mph    
Visibility 10 miles    
Events      
Averages and records for this station are not official NWS values.
T = Trace of Precipitation, MM = Missing Value Source: NWS Daily Summary

Daily Weather History Graph

Daily Weather History Graph

Search for Another Location

Airport or City:

Trip Planner

Search our weather history database for the weather conditions in past years. The results will help you decide how hot, cold, wet, or windy it might be!

Date:

Astronomy

May. 01, 2013 Rise Set
Actual Time 5:55 AM PDT 7:48 PM PDT
Civil Twilight 5:26 AM PDT 8:17 PM PDT
Nautical Twilight 4:51 AM PDT 8:53 PM PDT
Astronomical Twilight 4:13 AM PDT 9:31 PM PDT
Moon 1:01 AM PDT (5/1) 11:39 AM PDT (5/1)
Length of Visible Light 14h 51m
Length of Day
13h 53m
Waning Gibbous, 58% of the Moon is Illuminated
May 1
Waning Gibbous
May 2
Last Quarter
May 9
New
May 17
First Quarter
May 24
Full

Hourly Weather History & Observations

Time (PDT) Temp. Windchill Dew Point Humidity Pressure Visibility Wind Dir Wind Speed Gust Speed Precip Events Conditions
12:56 AM 44.1 °F 42.5 °F -2.0 °F 15% 30.09 in 10.0 mi NE 3.5 mph - N/A   Clear
1:56 AM 45.0 °F 37.6 °F -4.0 °F 13% 30.11 in 10.0 mi North 17.3 mph - N/A   Clear
2:56 AM 39.9 °F 32.5 °F -0.9 °F 18% 30.12 in 10.0 mi North 12.7 mph - N/A   Clear
3:56 AM 39.0 °F 30.3 °F 1.0 °F 20% 30.14 in 10.0 mi North 16.1 mph - N/A   Clear
4:56 AM 34.0 °F 29.8 °F 3.9 °F 28% 30.17 in 10.0 mi South 4.6 mph - N/A   Clear
5:56 AM 34.0 °F 28.8 °F 5.0 °F 30% 30.19 in 10.0 mi NNE 5.8 mph - N/A   Clear
6:13 AM 33.8 °F 27.0 °F 6.8 °F 32% 30.32 in 10.0 mi North 8.1 mph - N/A   Partly Cloudy
6:56 AM 36.0 °F - 7.0 °F 30% 30.22 in 10.0 mi Calm Calm - N/A   Clear
7:56 AM 41.0 °F 39.0 °F 6.1 °F 24% 30.24 in 10.0 mi East 3.5 mph - N/A   Partly Cloudy
8:56 AM 46.9 °F - 7.0 °F 20% 30.25 in 10.0 mi NE 9.2 mph - N/A   Clear
9:56 AM 50.0 °F - 8.1 °F 18% 30.25 in 5.0 mi Variable 4.6 mph - N/A   Clear
10:32 AM 51.8 °F - 3.2 °F 14% 30.38 in 10.0 mi Variable 3.5 mph - N/A   Clear
10:56 AM 53.1 °F - 5.0 °F 14% 30.26 in 10.0 mi Variable 3.5 mph - N/A   Clear
11:56 AM 54.0 °F - 1.9 °F 12% 30.26 in 10.0 mi Calm Calm - N/A   Clear
12:56 PM 57.9 °F - -0.0 °F 10% 30.26 in 10.0 mi North 6.9 mph - N/A   Clear
1:56 PM 59.0 °F - 1.9 °F 10% 30.25 in 10.0 mi Variable 3.5 mph - N/A   Clear
2:56 PM 63.0 °F - -2.0 °F 7% 30.25 in 10.0 mi Variable 6.9 mph - N/A   Clear
3:56 PM 64.0 °F - -2.0 °F 7% 30.23 in 10.0 mi North 12.7 mph 16.1 mph N/A   Clear
4:56 PM 64.9 °F - -0.0 °F 7% 30.22 in 10.0 mi North 9.2 mph - N/A   Clear
5:56 PM 66.0 °F - -0.9 °F 7% 30.22 in 10.0 mi NNE 8.1 mph - N/A   Clear
6:56 PM 64.0 °F - 1.0 °F 8% 30.23 in 10.0 mi North 10.4 mph - N/A   Clear
7:56 PM 57.9 °F - 1.9 °F 10% 30.25 in 10.0 mi NNE 9.2 mph - N/A   Clear
8:56 PM 53.1 °F - 1.0 °F 12% 30.27 in 10.0 mi NNE 9.2 mph - N/A   Clear
9:56 PM 48.9 °F - -0.0 °F 13% 30.29 in 10.0 mi NNE 9.2 mph - N/A   Clear
10:56 PM 44.1 °F - 3.0 °F 18% 30.30 in 10.0 mi Calm Calm - N/A   Clear
11:56 PM 45.0 °F - 1.0 °F 16% 30.32 in 10.0 mi Calm Calm - N/A   Clear